PBD211 UUWW-ULLI

Flight info

Callsign PBD211
Flight time 1h 4m
Altitude 34000
Route N0450F340 SUNUN M869 RAVKA N50 NUDKO T561 ODATI T875 GENPA
Aircraft B738/M-VGDW/C

Departure

Time 2026-05-06 16:06
Airport Vnukovo International Airport (UUWW)

Arrival

Time 2026-05-06 17:10
Airport Pulkovo Airport (ULLI)
Time Latitude Longitude Altitude Speed Heading
2026-05-06 15:56 55.60012 37.28284 675 ft 0 kts 356°
2026-05-06 16:04 55.60013 37.28284 675 ft 2 kts 356°
2026-05-06 16:04 55.60077 37.28299 679 ft 16 kts 38°
2026-05-06 16:04 55.60158 37.28528 678 ft 26 kts 56°
2026-05-06 16:04 55.60220 37.28711 679 ft 11 kts 106°
2026-05-06 16:05 55.60152 37.28835 677 ft 17 kts 143°
2026-05-06 16:05 55.60023 37.28907 682 ft 19 kts 167°
2026-05-06 16:05 55.59885 37.28967 685 ft 22 kts 166°
2026-05-06 16:05 55.59763 37.28862 689 ft 30 kts 248°
2026-05-06 16:06 55.59582 37.28051 682 ft 112 kts 247°
2026-05-06 16:06 55.59234 37.26349 743 ft 175 kts 253°
2026-05-06 16:06 55.58806 37.24245 1597 ft 183 kts 248°
2026-05-06 16:06 55.58089 37.22432 2728 ft 183 kts 224°
2026-05-06 16:07 55.57083 37.20809 3190 ft 209 kts 234°
2026-05-06 16:07 55.56290 37.18530 3537 ft 225 kts 241°
2026-05-06 16:07 55.55426 37.16198 4176 ft 229 kts 238°
2026-05-06 16:07 55.54846 37.13636 4930 ft 224 kts 265°
2026-05-06 16:08 55.54832 37.10881 5747 ft 225 kts 271°
2026-05-06 16:08 55.54833 37.08147 6670 ft 221 kts 271°
2026-05-06 16:08 55.55174 37.05488 7403 ft 228 kts 299°
2026-05-06 16:08 55.56299 37.03489 8103 ft 241 kts 326°
2026-05-06 16:09 55.57948 37.02563 8731 ft 258 kts 350°
2026-05-06 16:09 55.59770 37.02466 9481 ft 266 kts 355°
2026-05-06 16:09 55.61615 37.02510 9827 ft 266 kts 356°
2026-05-06 16:09 55.63488 37.02555 9870 ft 272 kts 355°
2026-05-06 16:10 55.65319 37.02029 9901 ft 270 kts 333°
2026-05-06 16:10 55.67060 37.00620 9887 ft 278 kts 331°
2026-05-06 16:10 55.68844 36.99266 9898 ft 280 kts 333°
2026-05-06 16:10 55.70644 36.97945 9880 ft 281 kts 333°
2026-05-06 16:11 55.72452 36.96623 9885 ft 280 kts 333°
2026-05-06 16:11 55.74256 36.95291 9915 ft 281 kts 332°
2026-05-06 16:11 55.76068 36.93908 10412 ft 285 kts 332°
2026-05-06 16:11 55.77883 36.92515 11254 ft 284 kts 332°
2026-05-06 16:12 55.79709 36.91114 12053 ft 287 kts 332°
2026-05-06 16:12 55.81555 36.89681 12692 ft 292 kts 329°
2026-05-06 16:12 55.83258 36.87720 12787 ft 297 kts 316°
2026-05-06 16:12 55.84868 36.85270 13204 ft 310 kts 315°
2026-05-06 16:13 55.86513 36.82739 13805 ft 315 kts 315°
2026-05-06 16:13 55.88191 36.80229 13844 ft 313 kts 316°
2026-05-06 16:13 55.89875 36.77757 13903 ft 316 kts 316°
2026-05-06 16:13 55.91592 36.75257 13901 ft 319 kts 317°
2026-05-06 16:14 55.93359 36.72787 14297 ft 325 kts 318°
2026-05-06 16:14 55.95145 36.70332 15106 ft 323 kts 318°
2026-05-06 16:14 55.96929 36.67879 15856 ft 325 kts 318°
2026-05-06 16:14 55.98729 36.65394 16524 ft 329 kts 318°
2026-05-06 16:15 56.00548 36.62873 17200 ft 333 kts 318°
2026-05-06 16:15 56.02383 36.60323 17885 ft 336 kts 318°
2026-05-06 16:15 56.04238 36.57742 18510 ft 339 kts 318°
2026-05-06 16:15 56.06107 36.55138 19111 ft 342 kts 318°
2026-05-06 16:16 56.07919 36.52462 19688 ft 341 kts 309°
2026-05-06 16:16 56.09235 36.48976 20077 ft 344 kts 291°
2026-05-06 16:16 56.09965 36.44810 20191 ft 358 kts 283°
2026-05-06 16:16 56.10621 36.40398 20291 ft 374 kts 283°
2026-05-06 16:17 56.11312 36.35825 20384 ft 388 kts 283°
2026-05-06 16:17 56.12039 36.31071 20479 ft 402 kts 284°
2026-05-06 16:17 56.12797 36.26164 20575 ft 414 kts 284°
2026-05-06 16:17 56.13574 36.21161 20824 ft 420 kts 284°
2026-05-06 16:18 56.14359 36.16092 21264 ft 422 kts 284°
2026-05-06 16:18 56.15191 36.11033 21726 ft 424 kts 288°
2026-05-06 16:18 56.16405 36.06199 22138 ft 428 kts 295°
2026-05-06 16:18 56.17784 36.01443 22535 ft 430 kts 295°
2026-05-06 16:19 56.19170 35.96678 22900 ft 433 kts 297°
2026-05-06 16:19 56.20870 35.92162 23267 ft 439 kts 305°
2026-05-06 16:19 56.22893 35.88018 23629 ft 443 kts 311°
2026-05-06 16:19 56.25242 35.84396 23925 ft 449 kts 320°
2026-05-06 16:20 56.27787 35.81100 24236 ft 451 kts 321°
2026-05-06 16:20 56.30342 35.77785 24532 ft 453 kts 320°
2026-05-06 16:20 56.32889 35.74444 24824 ft 455 kts 320°
2026-05-06 16:20 56.35443 35.71059 25132 ft 456 kts 320°
2026-05-06 16:21 56.37990 35.67657 25416 ft 457 kts 320°
2026-05-06 16:21 56.40550 35.64222 25694 ft 459 kts 320°
2026-05-06 16:21 56.43082 35.60817 25984 ft 460 kts 319°
2026-05-06 16:21 56.45673 35.57326 26334 ft 459 kts 319°
2026-05-06 16:22 56.48229 35.53877 26740 ft 457 kts 319°
2026-05-06 16:22 56.50739 35.50485 27137 ft 455 kts 319°
2026-05-06 16:22 56.53266 35.47065 27528 ft 454 kts 319°
2026-05-06 16:22 56.55793 35.43640 27912 ft 453 kts 319°
2026-05-06 16:23 56.58304 35.40231 28318 ft 451 kts 319°
2026-05-06 16:23 56.60813 35.36797 28752 ft 449 kts 319°
2026-05-06 16:23 56.63296 35.33376 29165 ft 447 kts 319°
2026-05-06 16:23 56.65768 35.29956 29556 ft 446 kts 318°
2026-05-06 16:24 56.68223 35.26554 29949 ft 445 kts 318°
2026-05-06 16:24 56.70680 35.23146 30327 ft 443 kts 318°
2026-05-06 16:24 56.73119 35.19758 30653 ft 441 kts 318°
2026-05-06 16:24 56.75559 35.16363 30975 ft 440 kts 318°
2026-05-06 16:25 56.77991 35.12974 31302 ft 439 kts 318°
2026-05-06 16:25 56.80405 35.09605 31662 ft 437 kts 318°
2026-05-06 16:25 56.82818 35.06231 31982 ft 436 kts 318°
2026-05-06 16:25 56.85225 35.02859 32276 ft 435 kts 318°
2026-05-06 16:26 56.87619 34.99501 32586 ft 434 kts 318°
2026-05-06 16:26 56.90013 34.96141 32911 ft 433 kts 318°
2026-05-06 16:26 56.92430 34.92874 33195 ft 434 kts 320°
2026-05-06 16:26 56.94939 34.89782 33460 ft 434 kts 322°
2026-05-06 16:27 56.97482 34.86781 33747 ft 434 kts 322°
2026-05-06 16:27 57.00021 34.83819 33949 ft 434 kts 322°
2026-05-06 16:27 57.05129 34.77813 33933 ft 434 kts 322°
2026-05-06 16:28 57.10133 34.71840 33942 ft 430 kts 322°
2026-05-06 16:28 57.15160 34.65781 33949 ft 428 kts 321°
2026-05-06 16:29 57.20095 34.59802 33949 ft 427 kts 321°
2026-05-06 16:29 57.25094 34.53727 33950 ft 426 kts 321°
2026-05-06 16:30 57.29204 34.48719 33954 ft 426 kts 321°
2026-05-06 16:30 57.34954 34.41690 33957 ft 426 kts 321°
2026-05-06 16:31 57.39901 34.35621 33959 ft 427 kts 321°
2026-05-06 16:31 57.44852 34.29528 33962 ft 427 kts 321°
2026-05-06 16:32 57.49804 34.23413 33968 ft 428 kts 321°
2026-05-06 16:32 57.54758 34.17276 33970 ft 428 kts 320°
2026-05-06 16:33 57.59706 34.11125 33973 ft 428 kts 320°
2026-05-06 16:34 57.67123 34.01866 33970 ft 427 kts 320°
2026-05-06 16:34 57.72063 33.95674 33979 ft 427 kts 320°
2026-05-06 16:35 57.76994 33.89469 33986 ft 427 kts 320°
2026-05-06 16:35 57.81921 33.83249 33974 ft 427 kts 320°
2026-05-06 16:36 57.86802 33.77068 33986 ft 426 kts 319°
2026-05-06 16:36 57.91479 33.70232 33996 ft 422 kts 315°
2026-05-06 16:37 57.95990 33.63284 33984 ft 422 kts 315°
2026-05-06 16:37 58.00544 33.56293 33980 ft 422 kts 315°
2026-05-06 16:38 58.05096 33.49322 33988 ft 422 kts 315°
2026-05-06 16:38 58.09647 33.42341 33982 ft 422 kts 314°
2026-05-06 16:39 58.14192 33.35342 33991 ft 421 kts 314°
2026-05-06 16:39 58.18742 33.28316 33989 ft 421 kts 314°
2026-05-06 16:40 58.23287 33.21281 33996 ft 421 kts 314°
2026-05-06 16:40 58.27824 33.14237 33994 ft 421 kts 314°
2026-05-06 16:41 58.32355 33.07174 33996 ft 421 kts 314°
2026-05-06 16:41 58.36876 33.00097 33995 ft 421 kts 314°
2026-05-06 16:42 58.41390 32.93009 33998 ft 420 kts 314°
2026-05-06 16:42 58.45904 32.85902 33992 ft 421 kts 314°
2026-05-06 16:43 58.50416 32.78777 33998 ft 421 kts 314°
2026-05-06 16:43 58.54913 32.71648 33987 ft 421 kts 313°
2026-05-06 16:43 58.57179 32.68048 33636 ft 415 kts 313°
2026-05-06 16:44 58.59377 32.64559 32748 ft 408 kts 313°
2026-05-06 16:44 58.61564 32.61068 31553 ft 411 kts 313°
2026-05-06 16:44 58.63749 32.57572 30834 ft 404 kts 313°
2026-05-06 16:44 58.65891 32.54145 30050 ft 398 kts 313°
2026-05-06 16:45 58.67973 32.50807 29217 ft 391 kts 312°
2026-05-06 16:45 58.70043 32.47479 28396 ft 385 kts 312°
2026-05-06 16:45 58.72083 32.44194 27590 ft 380 kts 312°
2026-05-06 16:45 58.74121 32.40911 26802 ft 374 kts 312°
2026-05-06 16:46 58.76102 32.37714 26045 ft 369 kts 312°
2026-05-06 16:46 58.78032 32.34596 25317 ft 365 kts 312°
2026-05-06 16:46 58.79965 32.31473 24595 ft 360 kts 312°
2026-05-06 16:46 58.81899 32.28342 23882 ft 356 kts 312°
2026-05-06 16:47 58.83787 32.25281 23124 ft 353 kts 312°
2026-05-06 16:47 58.85630 32.22284 22413 ft 349 kts 312°
2026-05-06 16:47 58.87462 32.19305 22213 ft 343 kts 312°
2026-05-06 16:47 58.89333 32.16233 21980 ft 363 kts 312°
2026-05-06 16:48 58.91309 32.12975 21739 ft 383 kts 313°
2026-05-06 16:48 58.93398 32.09535 21214 ft 408 kts 313°
2026-05-06 16:48 58.95589 32.05941 20582 ft 412 kts 313°
2026-05-06 16:48 58.97769 32.02388 19908 ft 407 kts 314°
2026-05-06 16:49 58.99917 31.98881 19270 ft 401 kts 313°
2026-05-06 16:49 59.02035 31.95404 18642 ft 396 kts 313°
2026-05-06 16:49 59.04124 31.91958 17969 ft 392 kts 313°
2026-05-06 16:49 59.06190 31.88541 17279 ft 388 kts 313°
2026-05-06 16:50 59.08229 31.85167 16650 ft 383 kts 313°
2026-05-06 16:50 59.10245 31.81827 16019 ft 378 kts 313°
2026-05-06 16:50 59.12175 31.78428 15627 ft 368 kts 310°
2026-05-06 16:50 59.13389 31.76151 15374 ft 367 kts 309°
2026-05-06 16:51 59.15866 31.71374 14890 ft 379 kts 309°
2026-05-06 16:51 59.17112 31.68969 14631 ft 380 kts 309°
2026-05-06 16:51 59.18989 31.65368 14239 ft 377 kts 310°
2026-05-06 16:51 59.20858 31.61799 13876 ft 375 kts 310°
2026-05-06 16:52 59.22716 31.58256 13629 ft 374 kts 310°
2026-05-06 16:52 59.24580 31.54700 13390 ft 372 kts 310°
2026-05-06 16:52 59.26392 31.51249 13295 ft 357 kts 309°
2026-05-06 16:52 59.28136 31.47924 13189 ft 342 kts 309°
2026-05-06 16:53 59.29793 31.44763 13077 ft 323 kts 309°
2026-05-06 16:53 59.31368 31.41746 12417 ft 316 kts 309°
2026-05-06 16:53 59.32932 31.38728 11659 ft 315 kts 309°
2026-05-06 16:53 59.34491 31.35712 10919 ft 315 kts 309°
2026-05-06 16:54 59.36047 31.32700 10193 ft 314 kts 309°
2026-05-06 16:54 59.37603 31.29687 9429 ft 314 kts 309°
2026-05-06 16:54 59.39156 31.26675 8636 ft 314 kts 310°
2026-05-06 16:54 59.40707 31.23667 7874 ft 313 kts 310°
2026-05-06 16:55 59.42215 31.20747 7488 ft 301 kts 310°
2026-05-06 16:55 59.43684 31.17897 7084 ft 292 kts 310°
2026-05-06 16:55 59.45102 31.15138 6713 ft 282 kts 310°
2026-05-06 16:55 59.46476 31.12464 6344 ft 274 kts 310°
2026-05-06 16:56 59.47808 31.09867 6004 ft 266 kts 310°
2026-05-06 16:56 59.49108 31.07330 5637 ft 260 kts 310°
2026-05-06 16:56 59.50378 31.04850 5293 ft 254 kts 310°
2026-05-06 16:56 59.51784 31.02786 4973 ft 257 kts 335°
2026-05-06 16:57 59.53521 31.02269 4901 ft 249 kts 354°
2026-05-06 16:57 59.55193 31.02348 4796 ft 236 kts 357°
2026-05-06 16:57 59.56797 31.02491 4674 ft 222 kts 356°
2026-05-06 16:57 59.58285 31.02612 4558 ft 213 kts 356°
2026-05-06 16:58 59.59734 31.03042 4464 ft 214 kts 19°
2026-05-06 16:58 59.60994 31.04505 4404 ft 206 kts 27°
2026-05-06 16:58 59.62223 31.05853 4292 ft 200 kts 23°
2026-05-06 16:58 59.63439 31.07131 4204 ft 197 kts 23°
2026-05-06 16:59 59.64645 31.08397 4138 ft 196 kts 22°
2026-05-06 16:59 59.65894 31.09354 4015 ft 189 kts 358°
2026-05-06 16:59 59.67021 31.08624 3969 ft 165 kts 306°
2026-05-06 16:59 59.67616 31.06713 3949 ft 167 kts 294°
2026-05-06 17:00 59.68224 31.04711 3863 ft 170 kts 295°
2026-05-06 17:00 59.68786 31.02689 3765 ft 165 kts 292°
2026-05-06 17:00 59.69291 31.00686 3681 ft 160 kts 291°
2026-05-06 17:00 59.69776 30.98716 3608 ft 159 kts 291°
2026-05-06 17:01 59.70196 30.96855 3635 ft 159 kts 288°
2026-05-06 17:01 59.70600 30.94793 3639 ft 162 kts 286°
2026-05-06 17:01 59.70963 30.92696 3627 ft 160 kts 284°
2026-05-06 17:01 59.71295 30.90615 3617 ft 158 kts 283°
2026-05-06 17:02 59.71611 30.88535 3630 ft 157 kts 283°
2026-05-06 17:02 59.71917 30.86474 3619 ft 156 kts 283°
2026-05-06 17:02 59.72219 30.84422 3629 ft 155 kts 282°
2026-05-06 17:02 59.72519 30.82358 3639 ft 157 kts 282°
2026-05-06 17:03 59.72820 30.80265 3635 ft 158 kts 282°
2026-05-06 17:03 59.73127 30.78156 3633 ft 160 kts 282°
2026-05-06 17:03 59.73432 30.76036 3636 ft 161 kts 282°
2026-05-06 17:03 59.73738 30.73911 3631 ft 160 kts 282°
2026-05-06 17:04 59.74042 30.71808 3623 ft 158 kts 282°
2026-05-06 17:04 59.74340 30.69757 3626 ft 156 kts 282°
2026-05-06 17:04 59.74636 30.67712 3618 ft 150 kts 282°
2026-05-06 17:04 59.74907 30.65885 3632 ft 130 kts 282°
2026-05-06 17:05 59.75153 30.64171 3638 ft 130 kts 281°
2026-05-06 17:05 59.75398 30.62474 3639 ft 126 kts 282°
2026-05-06 17:05 59.75642 30.60790 3521 ft 127 kts 282°
2026-05-06 17:05 59.75886 30.59114 3354 ft 126 kts 282°
2026-05-06 17:06 59.76127 30.57450 3201 ft 126 kts 283°
2026-05-06 17:06 59.76372 30.55775 3024 ft 126 kts 284°
2026-05-06 17:06 59.76615 30.54119 2846 ft 125 kts 285°
2026-05-06 17:06 59.76856 30.52476 2679 ft 124 kts 285°
2026-05-06 17:07 59.77094 30.50842 2506 ft 123 kts 286°
2026-05-06 17:07 59.77333 30.49208 2345 ft 124 kts 286°
2026-05-06 17:07 59.77574 30.47556 2169 ft 125 kts 287°
2026-05-06 17:07 59.77819 30.45897 2010 ft 126 kts 287°
2026-05-06 17:08 59.78064 30.44223 1822 ft 127 kts 287°
2026-05-06 17:08 59.78312 30.42538 1642 ft 128 kts 288°
2026-05-06 17:08 59.78562 30.40841 1456 ft 129 kts 287°
2026-05-06 17:08 59.78813 30.39139 1252 ft 132 kts 286°
2026-05-06 17:09 59.79072 30.37359 940 ft 134 kts 288°
2026-05-06 17:09 59.79340 30.35570 722 ft 137 kts 288°
2026-05-06 17:09 59.79618 30.33700 443 ft 144 kts 287°
2026-05-06 17:09 59.79901 30.31780 277 ft 146 kts 287°
2026-05-06 17:10 59.80196 30.29817 84 ft 145 kts 288°
2026-05-06 17:10 59.80448 30.28130 66 ft 109 kts 286°
2026-05-06 17:10 59.80605 30.26975 62 ft 56 kts 283°
2026-05-06 17:10 59.80618 30.26663 68 ft 3 kts 223°
2026-05-06 17:11 59.80581 30.26628 71 ft 9 kts 198°
2026-05-06 17:11 59.80520 30.26588 74 ft 8 kts 199°
2026-05-06 17:11 59.80461 30.26575 66 ft 8 kts 161°
2026-05-06 17:11 59.80423 30.26693 72 ft 5 kts 107°
2026-05-06 17:12 59.80392 30.26839 73 ft 12 kts 154°
2026-05-06 17:12 59.80371 30.26847 71 ft 3 kts 181°
2026-05-06 17:12 59.80313 30.26795 71 ft 15 kts 219°
2026-05-06 17:12 59.80209 30.26756 73 ft 20 kts 191°
2026-05-06 17:13 59.80051 30.26665 74 ft 21 kts 196°
2026-05-06 17:13 59.79996 30.26710 76 ft 7 kts 111°
2026-05-06 17:13 59.79988 30.26758 73 ft 2 kts 107°